Grand Marais, MN

6:32 AM CDT on April 25, 2017 (GMT -0500)
Grand Marais

Weather History for KGNA - November, 2012

Change the Weather History Date:

Tuesday, November 13, 2012

  Actual Average (KCKC) Record (KCKC)
Temperature  
Mean Temperature 32 °F -  
Max Temperature 37 °F 32 °F 62 °F (1999)
Min Temperature 27 °F 21 °F 5 °F (1996)
Degree Days  
Heating Degree Days 33    
Moisture  
Dew Point 23 °F    
Average Humidity 71    
Maximum Humidity 78    
Minimum Humidity 59    
Precipitation  
Precipitation 0.00 in - - ()
Sea Level Pressure  
Sea Level Pressure 30.29 in    
Wind  
Wind Speed 7 mph (WSW)    
Max Wind Speed 13 mph    
Max Gust Speed 20 mph    
Averages and records for this station are not official NWS values.
T = Trace of Precipitation, MM = Missing Value Source: NWS Daily Summary

Daily Weather History Graph

Daily Weather History Graph

Search for Another Location

Airport or City:

Trip Planner

Search our weather history database for the weather conditions in past years. The results will help you decide how hot, cold, wet, or windy it might be!

Date:

Astronomy

Nov. 13, 2012 Rise Set
Actual Time 7:04 AM CST 4:26 PM CST
Civil Twilight 6:31 AM CST 4:59 PM CST
Nautical Twilight 5:53 AM CST 5:37 PM CST
Astronomical Twilight 5:17 AM CST 6:13 PM CST
Moon 6:44 AM CST (11/13) 4:17 PM CST (11/13)
Length of Visible Light 10h 28m
Length of Day
9h 21m
Waning Crescent, 0% of the Moon is Illuminated
Nov 13
Waning Crescent
Nov 13
New
Nov 20
First Quarter
Nov 28
Full
Dec 6
Last Quarter

Hourly Weather History & Observations

Time (CST) Temp. Windchill Dew Point Humidity Pressure Visibility Wind Dir Wind Speed Gust Speed Precip Events Conditions
12:56 AM 28.9 °F 22.8 °F 19.0 °F 67% 30.15 in - Variable 5.8 mph - N/A   Unknown
1:56 AM 28.9 °F 21.1 °F 21.9 °F 75% 30.19 in - WSW 8.1 mph - N/A   Unknown
2:56 AM 28.0 °F 24.2 °F 21.9 °F 78% 30.22 in - Variable 3.5 mph - N/A   Unknown
3:56 AM 28.9 °F 21.1 °F 23.0 °F 78% 30.24 in - West 8.1 mph - N/A   Unknown
4:56 AM 28.9 °F 21.9 °F 21.9 °F 75% 30.27 in - West 6.9 mph - N/A   Unknown
5:56 AM 28.0 °F 21.7 °F 21.0 °F 75% 30.28 in - West 5.8 mph - N/A   Unknown
6:56 AM 27.0 °F 20.5 °F 21.0 °F 78% 30.30 in - West 5.8 mph - N/A   Unknown
7:56 AM 28.0 °F 24.2 °F 19.9 °F 72% 30.32 in - West 3.5 mph - N/A   Unknown
8:56 AM 28.0 °F 21.7 °F 19.9 °F 72% 30.33 in - West 5.8 mph - N/A   Unknown
9:56 AM 30.9 °F 24.3 °F 23.0 °F 72% 30.34 in - WSW 6.9 mph - N/A   Unknown
10:56 AM 32.0 °F 24.2 °F 25.0 °F 75% 30.33 in - WSW 9.2 mph - N/A   Unknown
11:56 AM 33.1 °F 24.4 °F 25.0 °F 72% 30.32 in - SW 11.5 mph 19.6 mph N/A   Unknown
12:56 PM 33.1 °F 24.9 °F 25.0 °F 72% 30.31 in - SW 10.4 mph - N/A   Unknown
1:56 PM 35.1 °F 27.9 °F 26.1 °F 70% 30.30 in - WSW 9.2 mph - N/A   Unknown
2:56 PM 35.1 °F 26.4 °F 27.0 °F 72% 30.30 in - SW 12.7 mph - N/A   Unknown
3:56 PM 35.1 °F 26.9 °F 27.0 °F 72% 30.30 in - WSW 11.5 mph 17.3 mph N/A   Unknown
4:56 PM 36.0 °F 27.5 °F 27.0 °F 70% 30.31 in - SW 12.7 mph - N/A   Unknown
5:56 PM 37.0 °F 29.3 °F 26.1 °F 65% 30.31 in - SW 11.5 mph - N/A   Unknown
6:56 PM 35.1 °F 31.0 °F 26.1 °F 70% 30.32 in - West 4.6 mph - N/A   Unknown
7:56 PM 35.1 °F 32.2 °F 21.9 °F 59% 30.32 in - West 3.5 mph - N/A   Unknown
8:56 PM 35.1 °F 32.2 °F 21.9 °F 59% 30.33 in - WNW 3.5 mph - N/A   Unknown
9:56 PM 33.1 °F - 24.1 °F 70% 30.33 in - Calm Calm - N/A   Unknown
10:56 PM 34.0 °F 31.0 °F 24.1 °F 67% 30.32 in - WNW 3.5 mph - N/A   Unknown
11:56 PM 33.1 °F - 25.0 °F 72% 30.33 in - Calm Calm - N/A   Unknown